owner,sensor,date,latitude,longitude,vertical_datum,direction_of_sea_water_velocity,sea_water_speed,upward_sea_water_velocity,qcFlag 
TABS,ioos:station:wmo:42050:1,2001-05-01T00:00:00Z,28.8425,-94.2433,2.0,256.5327618,23.91761903,-99999.0,'11111222,11111222,99999999' 
TABS,ioos:station:wmo:42050:1,2001-05-01T00:30:00Z,28.8425,-94.2433,2.0,259.2109439,24.57436876,-99999.0,'11111222,11111222,99999999' 
TABS,ioos:station:wmo:42050:1,2001-05-01T01:00:00Z,28.8425,-94.2433,2.0,257.189768,22.77688741,-99999.0,'11111222,11111222,99999999' 
TABS,ioos:station:wmo:42050:1,2001-05-01T01:30:00Z,28.8425,-94.2433,2.0,244.7638251,21.97751806,-99999.0,'11111222,11111222,99999999' 
TABS,ioos:station:wmo:42050:1,2001-05-01T02:00:00Z,28.8425,-94.2433,2.0,249.8656577,23.0378341,-99999.0,'11111222,11111222,99999999' 
TABS,ioos:station:wmo:42050:1,2001-05-01T02:30:00Z,28.8425,-94.2433,2.0,252.312964,24.45597882,-99999.0,'11111222,11111222,99999999' 
TABS,ioos:station:wmo:42050:1,2001-05-01T03:00:00Z,28.8425,-94.2433,2.0,245.1553124,24.87181939,-99999.0,'11111222,11111222,99999999' 
TABS,ioos:station:wmo:42050:1,2001-05-01T03:30:00Z,28.8425,-94.2433,2.0,246.2021968,25.37766735,-99999.0,'11111222,11111222,99999999' 
TABS,ioos:station:wmo:42050:1,2001-05-01T04:00:00Z,28.8425,-94.2433,2.0,246.9557116,24.32066611,-99999.0,'11111222,11111222,99999999' 
TABS,ioos:station:wmo:42050:1,2001-05-01T04:30:00Z,28.8425,-94.2433,2.0,246.389028,24.46827334,-99999.0,'11111222,11111222,99999999' 
TABS,ioos:station:wmo:42050:1,2001-05-01T05:00:00Z,28.8425,-94.2433,2.0,239.0512311,25.62874948,-99999.0,'11111222,11111222,99999999' 
TABS,ioos:station:wmo:42050:1,2001-05-01T05:30:00Z,28.8425,-94.2433,2.0,233.455572,24.62039805,-99999.0,'11111222,11111222,99999999' 
TABS,ioos:station:wmo:42050:1,2001-05-01T06:00:00Z,28.8425,-94.2433,2.0,235.0892151,24.74246754,-99999.0,'11111222,11111222,99999999' 
TABS,ioos:station:wmo:42050:1,2001-05-01T06:30:00Z,28.8425,-94.2433,2.0,241.3990465,27.82529964,-99999.0,'11111222,11111222,99999999' 
TABS,ioos:station:wmo:42050:1,2001-05-01T07:00:00Z,28.8425,-94.2433,2.0,244.6442731,29.65687104,-99999.0,'11111222,11111222,99999999' 
TABS,ioos:station:wmo:42050:1,2001-05-01T07:30:00Z,28.8425,-94.2433,2.0,244.0887093,26.63777769,-99999.0,'11111222,11111222,99999999' 
TABS,ioos:station:wmo:42050:1,2001-05-01T12:00:00Z,28.8425,-94.2433,2.0,279.3457817,20.1372739,-99999.0,'11111222,11111222,99999999' 
TABS,ioos:station:wmo:42050:1,2001-05-01T12:30:00Z,28.8425,-94.2433,2.0,283.5750762,18.06463949,-99999.0,'11111222,11111222,99999999' 
TABS,ioos:station:wmo:42050:1,2001-05-01T13:00:00Z,28.8425,-94.2433,2.0,275.9438552,17.38344327,-99999.0,'11111222,11111222,99999999' 
TABS,ioos:station:wmo:42050:1,2001-05-01T13:30:00Z,28.8425,-94.2433,2.0,289.7429652,19.53847742,-99999.0,'11111222,11111222,99999999' 
TABS,ioos:station:wmo:42050:1,2001-05-01T14:00:00Z,28.8425,-94.2433,2.0,293.0340265,20.98285491,-99999.0,'11111222,11111222,99999999' 
TABS,ioos:station:wmo:42050:1,2001-05-01T14:30:00Z,28.8425,-94.2433,2.0,278.416955,16.12365033,-99999.0,'11111222,11111222,99999999' 
TABS,ioos:station:wmo:42050:1,2001-05-01T15:00:00Z,28.8425,-94.2433,2.0,276.6769966,17.11607724,-99999.0,'11111222,11111222,99999999' 
TABS,ioos:station:wmo:42050:1,2001-05-01T15:30:00Z,28.8425,-94.2433,2.0,283.2762008,21.38139846,-99999.0,'11111222,11111222,99999999' 
TABS,ioos:station:wmo:42050:1,2001-05-01T16:00:00Z,28.8425,-94.2433,2.0,275.0870741,26.95616071,-99999.0,'11111222,11111222,99999999' 
TABS,ioos:station:wmo:42050:1,2001-05-01T16:30:00Z,28.8425,-94.2433,2.0,276.908152,34.67167864,-99999.0,'11111222,11111222,99999999' 
TABS,ioos:station:wmo:42050:1,2001-05-01T17:00:00Z,28.8425,-94.2433,2.0,276.7571939,34.93262372,-99999.0,'11111222,11111222,99999999' 
TABS,ioos:station:wmo:42050:1,2001-05-01T17:30:00Z,28.8425,-94.2433,2.0,274.5792228,32.69434508,-99999.0,'11111222,11111222,99999999' 
TABS,ioos:station:wmo:42050:1,2001-05-01T18:00:00Z,28.8425,-94.2433,2.0,267.0099549,29.91070878,-99999.0,'11111222,11111222,99999999' 
TABS,ioos:station:wmo:42050:1,2001-05-01T18:30:00Z,28.8425,-94.2433,2.0,254.4391003,21.06197047,-99999.0,'11111222,11111222,99999999' 
TABS,ioos:station:wmo:42050:1,2001-05-01T19:00:00Z,28.8425,-94.2433,2.0,250.6997572,19.27311599,-99999.0,'11111222,11111222,99999999' 
TABS,ioos:station:wmo:42050:1,2001-05-01T19:30:00Z,28.8425,-94.2433,2.0,233.2095666,12.92401253,-99999.0,'11111222,11111222,99999999' 
TABS,ioos:station:wmo:42050:1,2001-05-01T20:00:00Z,28.8425,-94.2433,2.0,238.3873868,15.7582994,-99999.0,'11111222,11111222,99999999' 
TABS,ioos:station:wmo:42050:1,2001-05-01T20:30:00Z,28.8425,-94.2433,2.0,240.0681372,15.99312352,-99999.0,'11111222,11111222,99999999' 
TABS,ioos:station:wmo:42050:1,2001-05-01T21:00:00Z,28.8425,-94.2433,2.0,252.1038554,15.45789766,-99999.0,'11111222,11111222,99999999' 
TABS,ioos:station:wmo:42050:1,2001-05-01T21:30:00Z,28.8425,-94.2433,2.0,257.6783718,21.55652106,-99999.0,'11111222,11111222,99999999' 
TABS,ioos:station:wmo:42050:1,2001-05-01T22:00:00Z,28.8425,-94.2433,2.0,262.2075192,21.0947766,-99999.0,'11111222,11111222,99999999' 
TABS,ioos:station:wmo:42050:1,2001-05-01T22:30:00Z,28.8425,-94.2433,2.0,263.2739368,19.04103464,-99999.0,'11111222,11111222,99999999' 
TABS,ioos:station:wmo:42050:1,2001-05-01T23:00:00Z,28.8425,-94.2433,2.0,261.4201273,18.03177751,-99999.0,'11111222,11111222,99999999' 
TABS,ioos:station:wmo:42050:1,2001-05-01T23:30:00Z,28.8425,-94.2433,2.0,262.8405154,18.77638144,-99999.0,'11111222,11111222,99999999' 
TABS,ioos:station:wmo:42050:1,2001-05-02T04:00:00Z,28.8425,-94.2433,2.0,257.851552,11.26219339,-99999.0,'11111222,11111222,99999999' 
TABS,ioos:station:wmo:42050:1,2001-05-02T04:30:00Z,28.8425,-94.2433,2.0,259.5387847,9.528368171,-99999.0,'11133222,11111222,99999999' 
TABS,ioos:station:wmo:42050:1,2001-05-02T05:00:00Z,28.8425,-94.2433,2.0,247.0032449,10.41791726,-99999.0,'11111222,11111222,99999999' 
TABS,ioos:station:wmo:42050:1,2001-05-02T05:30:00Z,28.8425,-94.2433,2.0,245.7297802,11.16693781,-99999.0,'11111222,11111222,99999999' 
TABS,ioos:station:wmo:42050:1,2001-05-02T06:00:00Z,28.8425,-94.2433,2.0,244.0183029,11.41348325,-99999.0,'11111222,11111222,99999999' 
TABS,ioos:station:wmo:42050:1,2001-05-02T06:30:00Z,28.8425,-94.2433,2.0,226.9975595,13.38659778,-99999.0,'11111222,11111222,99999999' 
TABS,ioos:station:wmo:42050:1,2001-05-02T07:00:00Z,28.8425,-94.2433,2.0,224.0312903,10.45960324,-99999.0,'11111222,11111222,99999999' 
TABS,ioos:station:wmo:42050:1,2001-05-02T07:30:00Z,28.8425,-94.2433,2.0,231.3598877,13.4043948,-99999.0,'11111222,11111222,99999999' 
TABS,ioos:station:wmo:42050:1,2001-05-02T08:00:00Z,28.8425,-94.2433,2.0,231.0765772,11.55541864,-99999.0,'11111222,11111222,99999999' 
TABS,ioos:station:wmo:42050:1,2001-05-02T08:30:00Z,28.8425,-94.2433,2.0,235.5208016,15.91585687,-99999.0,'11111222,11111222,99999999' 
TABS,ioos:station:wmo:42050:1,2001-05-02T09:00:00Z,28.8425,-94.2433,2.0,231.1712128,15.91729877,-99999.0,'11111222,11111222,99999999' 
TABS,ioos:station:wmo:42050:1,2001-05-02T09:30:00Z,28.8425,-94.2433,2.0,254.7537368,16.31415643,-99999.0,'11111222,11111222,99999999' 
TABS,ioos:station:wmo:42050:1,2001-05-02T10:00:00Z,28.8425,-94.2433,2.0,264.7557169,17.83464325,-99999.0,'11111222,11111222,99999999' 
TABS,ioos:station:wmo:42050:1,2001-05-02T10:30:00Z,28.8425,-94.2433,2.0,268.2848712,15.70703346,-99999.0,'11111222,11111222,99999999' 
TABS,ioos:station:wmo:42050:1,2001-05-02T11:00:00Z,28.8425,-94.2433,2.0,273.0395366,18.29573174,-99999.0,'11111222,11111222,99999999' 
TABS,ioos:station:wmo:42050:1,2001-05-02T11:30:00Z,28.8425,-94.2433,2.0,269.8170126,18.83009559,-99999.0,'11111222,11111222,99999999' 
TABS,ioos:station:wmo:42050:1,2001-05-02T12:00:00Z,28.8425,-94.2433,2.0,278.8562071,17.08365593,-99999.0,'11111222,11111222,99999999' 
TABS,ioos:station:wmo:42050:1,2001-05-02T12:30:00Z,28.8425,-94.2433,2.0,287.6124655,17.61570322,-99999.0,'11111222,11111222,99999999' 
TABS,ioos:station:wmo:42050:1,2001-05-02T13:00:00Z,28.8425,-94.2433,2.0,289.9754796,18.35416574,-99999.0,'11111222,11111222,99999999' 
TABS,ioos:station:wmo:42050:1,2001-05-02T13:30:00Z,28.8425,-94.2433,2.0,301.8204784,18.35925924,-99999.0,'11111222,11111222,99999999' 
TABS,ioos:station:wmo:42050:1,2001-05-02T14:00:00Z,28.8425,-94.2433,2.0,306.422395,19.95860967,-99999.0,'11111222,11111222,99999999' 
TABS,ioos:station:wmo:42050:1,2001-05-02T14:30:00Z,28.8425,-94.2433,2.0,315.7056433,20.10456913,-99999.0,'11111222,11111222,99999999' 
TABS,ioos:station:wmo:42050:1,2001-05-02T15:00:00Z,28.8425,-94.2433,2.0,304.8592056,19.03572431,-99999.0,'11111222,11111222,99999999' 
TABS,ioos:station:wmo:42050:1,2001-05-02T15:30:00Z,28.8425,-94.2433,2.0,317.7434497,18.32091701,-99999.0,'11111222,11111222,99999999' 
TABS,ioos:station:wmo:42050:1,2001-05-02T16:00:00Z,28.8425,-94.2433,2.0,318.6061841,19.67530686,-99999.0,'11111222,11111222,99999999' 
TABS,ioos:station:wmo:42050:1,2001-05-02T16:30:00Z,28.8425,-94.2433,2.0,317.9236096,17.6086598,-99999.0,'11111222,11111222,99999999' 
TABS,ioos:station:wmo:42050:1,2001-05-02T17:00:00Z,28.8425,-94.2433,2.0,315.0986772,16.47561228,-99999.0,'11111222,11111222,99999999' 
TABS,ioos:station:wmo:42050:1,2001-05-02T17:30:00Z,28.8425,-94.2433,2.0,315.7156088,17.55882969,-99999.0,'11111222,11111222,99999999' 
TABS,ioos:station:wmo:42050:1,2001-05-02T18:00:00Z,28.8425,-94.2433,2.0,314.17882,13.31618939,-99999.0,'11111222,11111222,99999999' 
TABS,ioos:station:wmo:42050:1,2001-05-02T18:30:00Z,28.8425,-94.2433,2.0,318.5080089,15.8334993,-99999.0,'11111222,11111222,99999999' 
TABS,ioos:station:wmo:42050:1,2001-05-02T19:00:00Z,28.8425,-94.2433,2.0,314.3435501,10.48708253,-99999.0,'11111222,11111222,99999999' 
TABS,ioos:station:wmo:42050:1,2001-05-02T19:30:00Z,28.8425,-94.2433,2.0,310.2439914,9.209961998,-99999.0,'11133222,11111222,99999999' 
TABS,ioos:station:wmo:42050:1,2001-05-02T20:00:00Z,28.8425,-94.2433,2.0,303.6008573,8.872440476,-99999.0,'11133222,11111222,99999999' 
TABS,ioos:station:wmo:42050:1,2001-05-02T20:30:00Z,28.8425,-94.2433,2.0,305.293134,9.519606084,-99999.0,'11133222,11111222,99999999' 
TABS,ioos:station:wmo:42050:1,2001-05-02T21:00:00Z,28.8425,-94.2433,2.0,302.1979743,9.477494395,-99999.0,'11133222,11111222,99999999' 
TABS,ioos:station:wmo:42050:1,2001-05-02T21:30:00Z,28.8425,-94.2433,2.0,300.8489381,10.23848622,-99999.0,'11111222,11111222,99999999' 
TABS,ioos:station:wmo:42050:1,2001-05-02T22:00:00Z,28.8425,-94.2433,2.0,306.1854564,12.55089638,-99999.0,'11111222,11111222,99999999' 
TABS,ioos:station:wmo:42050:1,2001-05-02T22:30:00Z,28.8425,-94.2433,2.0,320.5011521,13.64636582,-99999.0,'11111222,11111222,99999999' 
TABS,ioos:station:wmo:42050:1,2001-05-02T23:00:00Z,28.8425,-94.2433,2.0,315.9804995,11.98721402,-99999.0,'11111222,11111222,99999999' 
TABS,ioos:station:wmo:42050:1,2001-05-02T23:30:00Z,28.8425,-94.2433,2.0,310.3213168,11.52890715,-99999.0,'11111222,11111222,99999999' 
TABS,ioos:station:wmo:42050:1,2001-05-03T00:00:00Z,28.8425,-94.2433,2.0,301.6591381,12.44142275,-99999.0,'11111222,11111222,99999999' 
TABS,ioos:station:wmo:42050:1,2001-05-03T00:30:00Z,28.8425,-94.2433,2.0,294.8468733,14.01750691,-99999.0,'11111222,11111222,99999999' 
TABS,ioos:station:wmo:42050:1,2001-05-03T01:00:00Z,28.8425,-94.2433,2.0,297.409311,13.66385743,-99999.0,'11111222,11111222,99999999' 
TABS,ioos:station:wmo:42050:1,2001-05-03T01:30:00Z,28.8425,-94.2433,2.0,301.503519,14.39108405,-99999.0,'11111222,11111222,99999999' 
TABS,ioos:station:wmo:42050:1,2001-05-03T02:00:00Z,28.8425,-94.2433,2.0,297.2376879,13.72145765,-99999.0,'11111222,11111222,99999999' 
TABS,ioos:station:wmo:42050:1,2001-05-03T02:30:00Z,28.8425,-94.2433,2.0,293.9037122,13.77114737,-99999.0,'11111222,11111222,99999999' 
TABS,ioos:station:wmo:42050:1,2001-05-03T03:00:00Z,28.8425,-94.2433,2.0,295.9385264,13.4887694,-99999.0,'11111222,11111222,99999999' 
TABS,ioos:station:wmo:42050:1,2001-05-03T03:30:00Z,28.8425,-94.2433,2.0,302.3349879,15.1253595,-99999.0,'11111222,11111222,99999999' 
TABS,ioos:station:wmo:42050:1,2001-05-03T04:00:00Z,28.8425,-94.2433,2.0,297.0452367,17.08863072,-99999.0,'11111222,11111222,99999999' 
TABS,ioos:station:wmo:42050:1,2001-05-03T04:30:00Z,28.8425,-94.2433,2.0,298.9154626,15.15987467,-99999.0,'11111222,11111222,99999999' 
TABS,ioos:station:wmo:42050:1,2001-05-03T05:00:00Z,28.8425,-94.2433,2.0,293.7783699,17.65899204,-99999.0,'11111222,11111222,99999999' 
TABS,ioos:station:wmo:42050:1,2001-05-03T05:30:00Z,28.8425,-94.2433,2.0,288.4199782,11.80478293,-99999.0,'11111222,11111222,99999999' 
TABS,ioos:station:wmo:42050:1,2001-05-03T06:00:00Z,28.8425,-94.2433,2.0,290.456156,16.05221792,-99999.0,'11111222,11111222,99999999' 
TABS,ioos:station:wmo:42050:1,2001-05-03T06:30:00Z,28.8425,-94.2433,2.0,277.1393657,15.28852184,-99999.0,'11111222,11111222,99999999' 
TABS,ioos:station:wmo:42050:1,2001-05-03T07:00:00Z,28.8425,-94.2433,2.0,267.6945836,15.91287529,-99999.0,'11111222,11111222,99999999' 
TABS,ioos:station:wmo:42050:1,2001-05-03T07:30:00Z,28.8425,-94.2433,2.0,261.5450738,15.23556694,-99999.0,'11111222,11111222,99999999' 
TABS,ioos:station:wmo:42050:1,2001-05-03T08:00:00Z,28.8425,-94.2433,2.0,269.7275543,16.85018991,-99999.0,'11111222,11111222,99999999' 
TABS,ioos:station:wmo:42050:1,2001-05-03T08:30:00Z,28.8425,-94.2433,2.0,266.2249116,18.37987214,-99999.0,'11111222,11111222,99999999' 
TABS,ioos:station:wmo:42050:1,2001-05-03T09:00:00Z,28.8425,-94.2433,2.0,263.7514305,19.93843775,-99999.0,'11111222,11111222,99999999' 
TABS,ioos:station:wmo:42050:1,2001-05-03T09:30:00Z,28.8425,-94.2433,2.0,257.5741032,21.65728746,-99999.0,'11111222,11111222,99999999' 
TABS,ioos:station:wmo:42050:1,2001-05-03T10:00:00Z,28.8425,-94.2433,2.0,253.5951886,19.54566192,-99999.0,'11111222,11111222,99999999' 
TABS,ioos:station:wmo:42050:1,2001-05-03T10:30:00Z,28.8425,-94.2433,2.0,258.5419226,21.29436076,-99999.0,'11111222,11111222,99999999' 
TABS,ioos:station:wmo:42050:1,2001-05-03T11:00:00Z,28.8425,-94.2433,2.0,252.5225976,22.50907595,-99999.0,'11111222,11111222,99999999' 
TABS,ioos:station:wmo:42050:1,2001-05-03T11:30:00Z,28.8425,-94.2433,2.0,252.7756492,20.49929999,-99999.0,'11111222,11111222,99999999' 
TABS,ioos:station:wmo:42050:1,2001-05-03T12:00:00Z,28.8425,-94.2433,2.0,255.2531282,19.95736456,-99999.0,'11111222,11111222,99999999' 
TABS,ioos:station:wmo:42050:1,2001-05-03T12:30:00Z,28.8425,-94.2433,2.0,260.3906081,16.05525771,-99999.0,'11111222,11111222,99999999' 
TABS,ioos:station:wmo:42050:1,2001-05-03T13:00:00Z,28.8425,-94.2433,2.0,263.7761532,17.34220286,-99999.0,'11111222,11111222,99999999' 
TABS,ioos:station:wmo:42050:1,2001-05-03T13:30:00Z,28.8425,-94.2433,2.0,264.6296964,17.73784654,-99999.0,'11111222,11111222,99999999' 
TABS,ioos:station:wmo:42050:1,2001-05-03T14:00:00Z,28.8425,-94.2433,2.0,280.7908128,17.51977454,-99999.0,'11111222,11111222,99999999' 
TABS,ioos:station:wmo:42050:1,2001-05-03T14:30:00Z,28.8425,-94.2433,2.0,289.1164027,17.55820606,-99999.0,'11111222,11111222,99999999' 
TABS,ioos:station:wmo:42050:1,2001-05-03T15:00:00Z,28.8425,-94.2433,2.0,290.9743571,18.13132648,-99999.0,'11111222,11111222,99999999' 
TABS,ioos:station:wmo:42050:1,2001-05-03T15:30:00Z,28.8425,-94.2433,2.0,289.934326,20.91297444,-99999.0,'11111222,11111222,99999999' 
TABS,ioos:station:wmo:42050:1,2001-05-03T16:00:00Z,28.8425,-94.2433,2.0,326.8501735,18.83568156,-99999.0,'11111222,11111222,99999999' 
TABS,ioos:station:wmo:42050:1,2001-05-03T16:30:00Z,28.8425,-94.2433,2.0,331.0794938,18.71381575,-99999.0,'11111222,11111222,99999999' 
TABS,ioos:station:wmo:42050:1,2001-05-03T17:00:00Z,28.8425,-94.2433,2.0,338.0904531,15.70428286,-99999.0,'11111222,11111222,99999999' 
TABS,ioos:station:wmo:42050:1,2001-05-03T17:30:00Z,28.8425,-94.2433,2.0,338.4921468,14.51042384,-99999.0,'11111222,11111222,99999999' 
TABS,ioos:station:wmo:42050:1,2001-05-03T18:00:00Z,28.8425,-94.2433,2.0,321.2088997,13.59964705,-99999.0,'11111222,11111222,99999999' 
TABS,ioos:station:wmo:42050:1,2001-05-03T18:30:00Z,28.8425,-94.2433,2.0,315.0003157,9.135819613,-99999.0,'11133222,11111222,99999999' 
TABS,ioos:station:wmo:42050:1,2001-05-03T19:00:00Z,28.8425,-94.2433,2.0,307.9492458,10.19580796,-99999.0,'11111222,11111222,99999999' 
TABS,ioos:station:wmo:42050:1,2001-05-03T19:30:00Z,28.8425,-94.2433,2.0,299.7452327,8.787860946,-99999.0,'11133222,11111222,99999999' 
TABS,ioos:station:wmo:42050:1,2001-05-03T20:00:00Z,28.8425,-94.2433,2.0,284.79611,10.0636872,-99999.0,'11111222,11111222,99999999' 
TABS,ioos:station:wmo:42050:1,2001-05-03T20:30:00Z,28.8425,-94.2433,2.0,274.8259978,9.985394334,-99999.0,'11133222,11111222,99999999' 
TABS,ioos:station:wmo:42050:1,2001-05-03T21:00:00Z,28.8425,-94.2433,2.0,262.2940852,12.97717997,-99999.0,'11111222,11111222,99999999' 
TABS,ioos:station:wmo:42050:1,2001-05-03T21:30:00Z,28.8425,-94.2433,2.0,269.1252556,12.45144971,-99999.0,'11111222,11111222,99999999' 
TABS,ioos:station:wmo:42050:1,2001-05-03T22:00:00Z,28.8425,-94.2433,2.0,251.377685,16.47239205,-99999.0,'11111222,11111222,99999999' 
TABS,ioos:station:wmo:42050:1,2001-05-03T22:30:00Z,28.8425,-94.2433,2.0,257.2762981,17.25366338,-99999.0,'11111222,11111222,99999999' 
TABS,ioos:station:wmo:42050:1,2001-05-03T23:00:00Z,28.8425,-94.2433,2.0,279.327769,22.33530837,-99999.0,'11111222,11111222,99999999' 
TABS,ioos:station:wmo:42050:1,2001-05-03T23:30:00Z,28.8425,-94.2433,2.0,281.2708088,19.90383129,-99999.0,'11111222,11111222,99999999' 
TABS,ioos:station:wmo:42050:1,2001-05-04T04:00:00Z,28.8425,-94.2433,2.0,304.3305578,27.80330916,-99999.0,'11111222,11111222,99999999' 
TABS,ioos:station:wmo:42050:1,2001-05-04T04:30:00Z,28.8425,-94.2433,2.0,295.5976091,28.33055065,-99999.0,'11111222,11111222,99999999' 
TABS,ioos:station:wmo:42050:1,2001-05-04T05:00:00Z,28.8425,-94.2433,2.0,302.1930851,23.98788027,-99999.0,'11111222,11111222,99999999' 
TABS,ioos:station:wmo:42050:1,2001-05-04T05:30:00Z,28.8425,-94.2433,2.0,294.7448633,23.50846869,-99999.0,'11111222,11111222,99999999' 
TABS,ioos:station:wmo:42050:1,2001-05-04T06:00:00Z,28.8425,-94.2433,2.0,298.378194,20.64029312,-99999.0,'11111222,11111222,99999999' 
TABS,ioos:station:wmo:42050:1,2001-05-04T06:30:00Z,28.8425,-94.2433,2.0,300.710609,18.9936542,-99999.0,'11111222,11111222,99999999' 
TABS,ioos:station:wmo:42050:1,2001-05-04T07:00:00Z,28.8425,-94.2433,2.0,291.9280949,18.53058283,-99999.0,'11111222,11111222,99999999' 
TABS,ioos:station:wmo:42050:1,2001-05-04T07:30:00Z,28.8425,-94.2433,2.0,276.7928066,15.81097404,-99999.0,'11111222,11111222,99999999' 
TABS,ioos:station:wmo:42050:1,2001-05-04T08:00:00Z,28.8425,-94.2433,2.0,271.7617246,16.26768576,-99999.0,'11111222,11111222,99999999' 
TABS,ioos:station:wmo:42050:1,2001-05-04T08:30:00Z,28.8425,-94.2433,2.0,271.7558107,17.62827275,-99999.0,'11111222,11111222,99999999' 
TABS,ioos:station:wmo:42050:1,2001-05-04T09:00:00Z,28.8425,-94.2433,2.0,272.1909897,18.31338308,-99999.0,'11111222,11111222,99999999' 
TABS,ioos:station:wmo:42050:1,2001-05-04T09:30:00Z,28.8425,-94.2433,2.0,250.3377961,24.07361419,-99999.0,'11111222,11111222,99999999' 
TABS,ioos:station:wmo:42050:1,2001-05-04T10:00:00Z,28.8425,-94.2433,2.0,252.0530834,24.11324325,-99999.0,'11111222,11111222,99999999' 
TABS,ioos:station:wmo:42050:1,2001-05-04T10:30:00Z,28.8425,-94.2433,2.0,257.1646569,21.51763928,-99999.0,'11111222,11111222,99999999' 
TABS,ioos:station:wmo:42050:1,2001-05-04T11:00:00Z,28.8425,-94.2433,2.0,279.1516208,19.68049288,-99999.0,'11111222,11111222,99999999' 
TABS,ioos:station:wmo:42050:1,2001-05-04T11:30:00Z,28.8425,-94.2433,2.0,292.645526,19.16769418,-99999.0,'11111222,11111222,99999999' 
TABS,ioos:station:wmo:42050:1,2001-05-04T12:00:00Z,28.8425,-94.2433,2.0,296.199016,16.78426942,-99999.0,'11111222,11111222,99999999' 
TABS,ioos:station:wmo:42050:1,2001-05-04T12:30:00Z,28.8425,-94.2433,2.0,304.6972731,20.36064095,-99999.0,'11111222,11111222,99999999' 
TABS,ioos:station:wmo:42050:1,2001-05-04T13:00:00Z,28.8425,-94.2433,2.0,319.9660666,17.64490295,-99999.0,'11111222,11111222,99999999' 
TABS,ioos:station:wmo:42050:1,2001-05-04T13:30:00Z,28.8425,-94.2433,2.0,328.7895155,17.50330826,-99999.0,'11111222,11111222,99999999' 
TABS,ioos:station:wmo:42050:1,2001-05-04T14:00:00Z,28.8425,-94.2433,2.0,337.5270042,17.73698114,-99999.0,'11111222,11111222,99999999' 
TABS,ioos:station:wmo:42050:1,2001-05-04T14:30:00Z,28.8425,-94.2433,2.0,340.3584279,16.06477202,-99999.0,'11111222,11111222,99999999' 
TABS,ioos:station:wmo:42050:1,2001-05-04T15:00:00Z,28.8425,-94.2433,2.0,336.433003,17.95783951,-99999.0,'11111222,11111222,99999999' 
TABS,ioos:station:wmo:42050:1,2001-05-04T15:30:00Z,28.8425,-94.2433,2.0,331.8547582,17.99824991,-99999.0,'11111222,11111222,99999999' 
TABS,ioos:station:wmo:42050:1,2001-05-04T16:00:00Z,28.8425,-94.2433,2.0,341.2714835,18.49956756,-99999.0,'11111222,11111222,99999999' 
TABS,ioos:station:wmo:42050:1,2001-05-04T16:30:00Z,28.8425,-94.2433,2.0,339.4292292,17.90144408,-99999.0,'11111222,11111222,99999999' 
TABS,ioos:station:wmo:42050:1,2001-05-04T17:00:00Z,28.8425,-94.2433,2.0,332.6170165,14.71930026,-99999.0,'11111222,11111222,99999999' 
TABS,ioos:station:wmo:42050:1,2001-05-04T17:30:00Z,28.8425,-94.2433,2.0,330.68464,15.56307489,-99999.0,'11111222,11111222,99999999' 
TABS,ioos:station:wmo:42050:1,2001-05-04T18:00:00Z,28.8425,-94.2433,2.0,332.5605467,9.374689328,-99999.0,'11133222,11111222,99999999' 
TABS,ioos:station:wmo:42050:1,2001-05-04T18:30:00Z,28.8425,-94.2433,2.0,317.8707638,12.56691291,-99999.0,'11111222,11111222,99999999' 
TABS,ioos:station:wmo:42050:1,2001-05-04T19:00:00Z,28.8425,-94.2433,2.0,312.4329069,9.944832829,-99999.0,'11133222,11111222,99999999' 
TABS,ioos:station:wmo:42050:1,2001-05-04T19:30:00Z,28.8425,-94.2433,2.0,297.5206679,10.19341454,-99999.0,'11111222,11111222,99999999' 
TABS,ioos:station:wmo:42050:1,2001-05-04T20:00:00Z,28.8425,-94.2433,2.0,299.272408,9.469134068,-99999.0,'11133222,11111222,99999999' 
TABS,ioos:station:wmo:42050:1,2001-05-04T20:30:00Z,28.8425,-94.2433,2.0,327.5124722,7.931185283,-99999.0,'11133222,11111222,99999999' 
TABS,ioos:station:wmo:42050:1,2001-05-04T21:00:00Z,28.8425,-94.2433,2.0,316.0155753,5.587020673,-99999.0,'11133222,11111222,99999999' 
TABS,ioos:station:wmo:42050:1,2001-05-04T21:30:00Z,28.8425,-94.2433,2.0,302.316475,5.667892024,-99999.0,'11133222,11111222,99999999' 
TABS,ioos:station:wmo:42050:1,2001-05-04T22:00:00Z,28.8425,-94.2433,2.0,302.7310528,7.619875327,-99999.0,'11133222,11111222,99999999' 
TABS,ioos:station:wmo:42050:1,2001-05-04T22:30:00Z,28.8425,-94.2433,2.0,271.9640739,5.253084808,-99999.0,'11133222,11111222,99999999' 
TABS,ioos:station:wmo:42050:1,2001-05-04T23:00:00Z,28.8425,-94.2433,2.0,279.2996409,6.93108938,-99999.0,'11133222,11111222,99999999' 
TABS,ioos:station:wmo:42050:1,2001-05-04T23:30:00Z,28.8425,-94.2433,2.0,289.0238903,8.927580859,-99999.0,'11133222,11111222,99999999' 
TABS,ioos:station:wmo:42050:1,2001-05-05T00:00:00Z,28.8425,-94.2433,2.0,291.298581,10.57204332,-99999.0,'11111222,11111222,99999999' 
TABS,ioos:station:wmo:42050:1,2001-05-05T00:30:00Z,28.8425,-94.2433,2.0,276.3340744,9.699200998,-99999.0,'11133222,11111222,99999999' 
TABS,ioos:station:wmo:42050:1,2001-05-05T01:00:00Z,28.8425,-94.2433,2.0,294.22115,11.26131875,-99999.0,'11111222,11111222,99999999' 
TABS,ioos:station:wmo:42050:1,2001-05-05T01:30:00Z,28.8425,-94.2433,2.0,298.2086005,12.16474003,-99999.0,'11111222,11111222,99999999' 
TABS,ioos:station:wmo:42050:1,2001-05-05T02:00:00Z,28.8425,-94.2433,2.0,303.5666612,14.12547344,-99999.0,'11111222,11111222,99999999' 
TABS,ioos:station:wmo:42050:1,2001-05-05T02:30:00Z,28.8425,-94.2433,2.0,299.3838432,14.55204453,-99999.0,'11111222,11111222,99999999' 
TABS,ioos:station:wmo:42050:1,2001-05-05T03:00:00Z,28.8425,-94.2433,2.0,309.3831622,15.96535311,-99999.0,'11111222,11111222,99999999' 
TABS,ioos:station:wmo:42050:1,2001-05-05T03:30:00Z,28.8425,-94.2433,2.0,320.3700304,16.32093747,-99999.0,'11111222,11111222,99999999' 
TABS,ioos:station:wmo:42050:1,2001-05-05T04:00:00Z,28.8425,-94.2433,2.0,328.9697977,16.19805235,-99999.0,'11111222,11111222,99999999' 